Flag for U.S.A. Weather past 2 weeks in Spartanburg, South Carolina, U.S.A.

Now
88 °F

Pleasantly warm.


Feels Like: 87 °F
Forecast: 68 / 86 °F
Wind: 3 mph from South

Location: Spartanburg Memorial

Current Time: May 28, 2015 at 4:52:34 PM

Latest Report: May 28, 2015 at 4:35 PM


Visibility: 10 mi

Pressure: 30.14 "Hg

Humidity: 38%

Dew point: 59 °F

Location of SpartanburgLocation

Historic Weather in Spartanburg — Graph

°F

Spartanburg temperature yesterday

Maximum temperature yesterday: 82 °F (at 3:55 PM)
Minimum temperature yesterday: 66 °F (at 6:35 AM)
Average temperature yesterday: 75 °F

Past Weeks' High & Low Weather Summary

 TemperatureHumidityPressure
High90 °F (May 18, 2:15 PM)100% (May 15, 5:15 AM)30.44 "Hg (May 15, 5:15 AM)
Low54 °F (May 23, 3:35 AM)19% (May 21, 6:35 PM)29.81 "Hg (May 21, 5:15 PM)
Average74 °F64%30.19 "Hg
* Reported May 13 3:15 PM — May 28 3:35 PM, Spartanburg, Weather by CustomWeather, © 2015

Note: Actual official high and low records may vary slightly from our data, if they occured in-between our weather recording intervals... More about our weather records

Advertising

Spartanburg weather history for previous 24 hours

 ConditionsComfort  
Time TempWeatherWind HumidityBarometerVisibility
3:35 PM
Thu, May 28
88 °FWarm.5 mph40%30.16 "Hg10 mi
3:15 PM88 °FPleasantly warm.3 mph38%30.17 "Hg10 mi
2:55 PM90 °FHot.7 mph38%30.17 "Hg10 mi
2:35 PM88 °FPleasantly warm.5 mph38%30.18 "Hg10 mi
2:15 PM88 °FWarm.6 mph40%30.19 "Hg10 mi
1:55 PM88 °FWarm.No wind43%30.20 "Hg10 mi
1:35 PM86 °FSunny.5 mph43%30.21 "Hg10 mi
1:15 PM86 °FScattered clouds.7 mph49%30.22 "Hg10 mi
12:55 PM82 °FScattered clouds.No wind55%30.22 "Hg10 mi
12:35 PM82 °FScattered clouds.No wind55%30.22 "Hg10 mi
12:15 PM82 °FScattered clouds.3 mph58%30.23 "Hg10 mi
11:55 AM82 °FBroken clouds.3 mph58%30.23 "Hg10 mi
11:35 AM82 °FSunny.No wind58%30.23 "Hg10 mi
11:15 AM81 °FSunny.No wind62%30.23 "Hg10 mi
10:55 AM81 °FSunny.3 mph66%30.23 "Hg10 mi
10:35 AM79 °FSunny.3 mph70%30.23 "Hg10 mi
10:15 AM79 °FSunny.No wind70%30.23 "Hg10 mi
9:55 AM77 °FSunny.5 mph74%30.23 "Hg10 mi
9:35 AM77 °FSunny.No wind79%30.23 "Hg10 mi
9:15 AM75 °FSunny.No wind89%30.23 "Hg10 mi
8:55 AM73 °FSunny.No wind94%30.22 "Hg10 mi
8:35 AM72 °FSunny.No wind100%30.22 "Hg10 mi
8:15 AM70 °FSunny.3 mph100%30.22 "Hg10 mi
7:55 AM70 °FSunny.No wind100%30.22 "Hg10 mi
7:35 AMN/ASunny.No windN/A30.22 "Hg10 mi
7:15 AMN/AClear.No windN/A30.21 "Hg10 mi
6:55 AMN/AClear.No windN/A30.21 "Hg10 mi
6:35 AMN/AClear.No windN/A30.20 "Hg10 mi
6:15 AMN/AClear.No windN/A30.20 "Hg10 mi
5:55 AMN/AClear.No windN/A30.20 "Hg10 mi
5:35 AMN/AClear.No windN/A30.20 "Hg10 mi
5:15 AMN/AClear.No windN/A30.20 "Hg10 mi
4:55 AMN/AClear.No windN/A30.20 "Hg10 mi
4:35 AMN/AClear.No windN/A30.20 "Hg10 mi
4:15 AMN/AClear.No windN/A30.19 "Hg10 mi
3:55 AMN/AClear.No windN/A30.19 "Hg10 mi
3:35 AMN/AClear.No windN/A30.19 "Hg10 mi
3:15 AMN/AClear.No windN/A30.20 "Hg10 mi
2:55 AMN/AClear.No windN/A30.20 "Hg10 mi
2:35 AMN/AClear.No windN/A30.20 "Hg10 mi
2:15 AM70 °FClear.No wind100%30.20 "Hg10 mi
1:55 AM70 °FPassing clouds.No wind100%30.20 "Hg10 mi
1:35 AM70 °FPassing clouds.No wind100%30.21 "Hg10 mi
1:15 AM70 °FPassing clouds.No wind100%30.21 "Hg10 mi
12:55 AM70 °FPassing clouds.No wind100%30.22 "Hg10 mi
12:35 AM70 °FPassing clouds.No wind100%30.22 "Hg10 mi
12:15 AM70 °FClear.No wind100%30.22 "Hg10 mi
11:35 PM
Wed, May 27
70 °FClear.No wind100%30.22 "Hg10 mi
11:15 PM70 °FClear.No wind100%30.23 "Hg10 mi
10:55 PM72 °FClear.No wind100%30.23 "Hg10 mi
10:35 PM72 °FClear.No wind100%30.23 "Hg10 mi
10:15 PM72 °FClear.No wind100%30.22 "Hg10 mi
9:55 PM72 °FClear.No wind100%30.21 "Hg10 mi
9:35 PM73 °FClear.No wind89%30.20 "Hg10 mi
9:15 PM73 °FSunny.No wind78%30.20 "Hg10 mi
8:55 PM77 °FSunny.No wind65%30.19 "Hg10 mi
8:35 PM79 °FSunny.No wind61%30.18 "Hg10 mi
8:15 PM79 °FSunny.No wind61%30.18 "Hg10 mi
7:55 PM81 °FSunny.No wind54%30.18 "Hg10 mi
7:35 PM81 °FSunny.3 mph54%30.18 "Hg10 mi
7:15 PM82 °FSunny.3 mph51%30.17 "Hg10 mi
6:55 PM82 °FSunny.5 mph51%30.18 "Hg10 mi
6:35 PM82 °FSunny.3 mph48%30.18 "Hg10 mi
6:15 PM82 °FSunny.6 mph48%30.18 "Hg10 mi
5:55 PM82 °FSunny.5 mph51%30.18 "Hg10 mi
5:35 PM82 °FSunny.5 mph51%30.19 "Hg10 mi
5:15 PM82 °FSunny.8 mph51%30.20 "Hg10 mi
4:55 PM82 °FSunny.3 mph55%30.20 "Hg10 mi
4:35 PM81 °FScattered clouds.3 mph58%30.20 "Hg10 mi
4:15 PM82 °FScattered clouds.6 mph55%30.21 "Hg10 mi
Weather by CustomWeather, © 2015

See weather overviewHow to use our weather pages